Location: Auttagershofen
(48.1940°N, 10.0237°E)
Time: 09:16:38
(UTC+00:00)

Cosmos 1869 Rocket - Pass Details

Date: 18 January 2026
Orbit: 597 x 626 km, 82.5° (Epoch: 15 February)

Event Time Altitude Azimuth Distance (km) Brightness Sun altitude
Rises 06:24:38 0° 180° (S) 2,898 7.3 -6.6°
Reaches altitude 10° 06:26:51 10° 177° (S) 1,997 6.6 -6.2°
Maximum altitude 06:31:15 65° 96° (E) 691 4.1 -5.6°
Drops below altitude 10° 06:35:40 10° 15° (NNE) 2,010 6.1 -4.9°
Sets 06:37:55 0° 13° (NNE) 2,919 6.9 -4.6°
